Zurück zum Katalog

ICEYE-X7

AktivWissenschaftSSO
NORAD 46496·PAYLOAD·🇫🇮 Finland

Gestartet Sep 28, 2020 von Plesetsk Cosmodrome

Loading…

Nächste Überflüge (nächste 24 Stunden)

TLE

AktuellSource: Space-Track

Epoche: Sep 14, 2026, 22:16 UTC

1 46496U 20068L   26257.92818067  .00010424  00000-0  32733-3 0  9990
2 46496  97.7596 228.6935 0007950  24.6340 335.5279 15.33189748328533

Verfolge ICEYE-X7 in Echtzeit mit AllMySat

Download on the App Store